Location: Utrecht
(52.0907°N, 5.1214°E)
Time: 06:35:55
(UTC+02:00)

SPROUT - Pass Details

Date: 30 June 2022
Orbit: 588 x 598 km, 97.9° (Epoch: 18 August)

Event Time Altitude Azimuth Distance (km) Brightness Sun altitude
Exits shadow 02:09:35 21° 158° (SSE) 1,330 ? -14.5°
Maximum altitude 02:12:18 80° 74° (ENE) 606 ? -14.5°
Drops below altitude 10° 02:16:29 10° 348° (NNW) 1,930 ? -14.4°
Sets 02:18:39 0° 347° (NNW) 2,837 ? -14.3°
